Temp
-12 -12 -12 -12 -12 -12 -13 -13 -14 -15 -15 -15 -15 -15 -15 -15 -16 -16 -16 -15 -15 -16 -16 -16 -16 -16 -16 -16 -16 -16 -15 -15 -15 -15 -15 -15 -15 -15 -16 -15 -15 -16 -17 -16 -16 -16 -15
-12 -12 -12 -12 -12 -12 -13 -13 -14 -14 -15 -15 -15 -15 -15 -16 -16 -16 -15 -15 -15 -16 -16 -16 -16 -15 -16 -16 -16 -16 -16 -16 -16 -16 -15 -16 -16 -16 -16 -16 -16 -16 -16 -16 -15 -15 -14
-12 -12 -12 -13 -12 -13 -13 -13 -14 -14 -15 -15 -15 -15 -16 -16 -16 -16 -16 -16 -16 -16 -16 -16 -16 -16 -15 -16 -16 -16 -16 -16 -16 -16 -16 -16 -16 -15 -16 -16 -16 -16 -16 -15 -15 -15 -14
-12 -12 -13 -13 -12 -13 -13 -13 -14 -15 -15 -15 -15 -16 -16 -16 -16 -16 -16 -16 -16 -16 -16 -16 -16 -17 -16 -16 -16 -16 -16 -16 -17 -16 -16 -16 -16 -16 -16 -16 -15 -15 -15 -15 -15 -15 -14
-13 -13 -13 -13 -12 -13 -13 -13 -14 -15 -15 -15 -15 -16 -16 -16 -16 -16 -16 -16 -16 -16 -16 -16 -16 -16 -16 -16 -16 -16 -16 -16 -16 -16 -17 -17 -17 -17 -17 -16 -16 -15 -15 -15 -15 -15 -15
-13 -13 -14 -14 -13 -12 -13 -13 -14 -15 -15 -15 -15 -16 -16 -17 -17 -17 -17 -16 -16 -16 -16 -17 -17 -17 -17 -17 -17 -17 -16 -16 -16 -17 -17 -16 -16 -16 -16 -16 -16 -16 -16 -15 -15 -15 -14
-14 -14 -14 -14 -13 -13 -13 -14 -14 -15 -15 -15 -15 -15 -16 -16 -17 -17 -17 -17 -16 -17 -17 -17 -17 -17 -17 -16 -16 -16 -16 -16 -17 -17 -16 -16 -16 -16 -16 -15 -15 -15 -15 -15 -15 -14 -14
-14 -14 -14 -14 -13 -13 -13 -14 -15 -15 -15 -15 -15 -15 -15 -15 -16 -16 -16 -16 -16 -16 -16 -17 -17 -16 -16 -16 -16 -16 -16 -17 -16 -17 -16 -15 -16 -15 -15 -15 -15 -15 -15 -14 -14 -15 -15
-15 -14 -14 -14 -13 -13 -14 -14 -15 -15 -15 -15 -15 -15 -15 -15 -15 -16 -16 -16 -16 -16 -16 -16 -16 -16 -16 -16 -16 -16 -16 -16 -16 -16 -16 -15 -15 -15 -16 -16 -15 -15 -15 -15 -16 -15 -15
-15 -15 -14 -14 -13 -13 -14 -14 -15 -15 -15 -15 -15 -15 -15 -15 -16 -16 -16 -16 -16 -16 -16 -16 -16 -16 -16 -16 -16 -16 -16 -16 -16 -16 -16 -16 -15 -15 -15 -15 -15 -15 -15 -15 -16 -16 -15
-15 -15 -14 -14 -13 -14 -14 -14 -15 -15 -15 -15 -16 -16 -16 -16 -16 -16 -16 -16 -16 -16 -16 -16 -16 -16 -16 -16 -15 -16 -15 -15 -15 -15 -15 -15 -15 -15 -15 -15 -15 -15 -15 -15 -15 -15 -15
-15 -15 -14 -13 -13 -14 -14 -15 -15 -15 -15 -15 -15 -16 -16 -16 -16 -16 -16 -16 -16 -16 -16 -16 -15 -15 -15 -15 -15 -15 -15 -15 -15 -15 -15 -15 -15 -15 -15 -15 -15 -15 -15 -15 -15 -15 -15
-15 -15 -14 -14 -14 -14 -15 -15 -15 -15 -15 -15 -15 -15 -16 -16 -16 -16 -16 -16 -16 -16 -15 -15 -15 -15 -15 -15 -15 -15 -15 -15 -15 -16 -15 -15 -15 -15 -15 -15 -15 -15 -15 -15 -15 -15 -15
-17 -16 -15 -15 -15 -15 -15 -15 -15 -15 -15 -15 -15 -15 -15 -15 -16 -16 -16 -16 -15 -15 -15 -15 -15 -15 -15 -15 -15 -15 -15 -15 -15 -15 -15 -15 -15 -15 -15 -15 -15 -14 -14 -14 -14 -14 -14
-17 -17 -17 -16 -15 -15 -16 -15 -15 -15 -15 -15 -15 -15 -15 -15 -16 -16 -15 -15 -15 -15 -15 -15 -15 -15 -15 -15 -15 -15 -15 -15 -15 -15 -15 -15 -15 -15 -15 -15 -15 -14 -14 -14 -14 -14 -14
-18 -17 -17 -16 -16 -16 -16 -16 -15 -15 -15 -15 -15 -15 -15 -15 -16 -15 -15 -15 -15 -15 -15 -15 -15 -15 -15 -15 -15 -15 -15 -15 -15 -15 -15 -15 -15 -15 -15 -15 -14 -14 -14 -14 -14 -14 -14
-17 -17 -17 -16 -17 -16 -16 -16 -15 -15 -15 -15 -15 -15 -15 -15 -15 -15 -15 -15 -15 -15 -15 -15 -15 -15 -15 -15 -15 -15 -15 -15 -15 -15 -15 -15 -15 -15 -15 -14 -14 -15 -15 -14 -14 -14 -14
-18 -18 -17 -17 -17 -17 -16 -16 -15 -15 -15 -15 -15 -15 -15 -15 -15 -15 -15 -15 -15 -15 -15 -15 -15 -15 -15 -15 -15 -15 -15 -15 -15 -15 -15 -15 -15 -15 -15 -15 -15 -15 -14 -14 -14 -14 -14
-18 -18 -18 -18 -17 -17 -16 -16 -15 -15 -15 -15 -15 -15 -15 -15 -15 -15 -15 -15 -15 -15 -15 -15 -15 -15 -15 -15 -15 -15 -15 -15 -15 -15 -15 -15 -15 -15 -15 -15 -15 -15 -14 -14 -14 -14 -14
-18 -18 -18 -18 -17 -17 -16 -16 -15 -15 -15 -16 -15 -15 -15 -15 -15 -15 -14 -15 -15 -15 -15 -15 -15 -15 -15 -15 -15 -15 -15 -15 -15 -15 -15 -15 -15 -15 -15 -15 -15 -15 -15 -15 -14 -14 -14
-18 -18 -18 -18 -18 -17 -17 -15 -16 -15 -15 -15 -15 -15 -15 -15 -15 -15 -14 -15 -15 -15 -15 -14 -14 -14 -14 -15 -15 -15 -15 -15 -15 -15 -15 -15 -15 -15 -15 -15 -15 -15 -15 -15 -15 -15 -15
-18 -18 -18 -18 -18 -17 -16 -16 -16 -15 -15 -15 -15 -15 -15 -15 -15 -15 -14 -14 -15 -15 -15 -14 -14 -14 -15 -15 -15 -15 -15 -15 -15 -15 -15 -15 -15 -15 -15 -15 -15 -15 -15 -15 -15 -15 -15
-18 -18 -18 -18 -18 -17 -16 -16 -16 -15 -15 -15 -15 -15 -15 -15 -15 -14 -14 -15 -15 -15 -14 -14 -14 -14 -15 -15 -15 -15 -15 -15 -15 -15 -15 -15 -15 -15 -15 -15 -15 -15 -15 -15 -15 -15 -15
-18 -18 -18 -18 -18 -17 -16 -16 -16 -16 -15 -15 -15 -15 -15 -15 -15 -15 -15 -15 -15 -15 -14 -14 -14 -14 -15 -15 -14 -15 -15 -15 -15 -15 -15 -15 -15 -15 -15 -15 -15 -15 -15 -15 -15 -16 -16
-18 -18 -18 -18 -18 -17 -17 -16 -16 -16 -15 -15 -15 -15 -15 -15 -15 -15 -15 -14 -14 -14 -14 -14 -14 -14 -14 -14 -14 -15 -15 -15 -15 -15 -15 -15 -16 -16 -16 -15 -15 -15 -15 -16 -16 -16 -16
-18 -18 -19 -19 -18 -17 -17 -16 -16 -16 -15 -15 -15 -15 -15 -15 -15 -15 -15 -14 -14 -14 -14 -14 -14 -14 -14 -14 -14 -14 -14 -15 -15 -15 -15 -16 -16 -16 -16 -16 -15 -15 -16 -16 -16 -16 -16
-18 -19 -19 -19 -18 -17 -17 -17 -16 -16 -16 -16 -15 -15 -15 -15 -15 -15 -15 -14 -14 -14 -14 -14 -14 -14 -14 -14 -14 -14 -14 -14 -15 -15 -15 -16 -16 -16 -16 -16 -15 -16 -16 -16 -16 -16 -16
-19 -20 -19 -19 -18 -18 -18 -17 -17 -17 -16 -16 -15 -15 -15 -15 -15 -15 -15 -15 -15 -14 -14 -14 -14 -14 -14 -14 -14 -14 -14 -14 -14 -15 -15 -15 -16 -16 -16 -16 -15 -16 -16 -16 -17 -17 -17
-20 -20 -19 -19 -19 -19 -18 -18 -17 -17 -17 -16 -16 -15 -15 -15 -15 -15 -15 -15 -15 -15 -15 -14 -14 -14 -14 -14 -14 -14 -14 -14 -15 -15 -16 -16 -16 -16 -17 -17 -17 -17 -16 -17 -16 -17 -17
Height
5767 5767 5766 5767 5767 5765 5763 5760 5755 5753 5750 5749 5749 5748 5748 5747 5746 5745 5745 5746 5748 5750 5751 5753 5754 5756 5757 5760 5762 5764 5767 5768 5771 5775 5778 5782 5787 5791 5792 5794 5796 5801 5804 5807 5810 5813 5815
5759 5759 5760 5760 5762 5759 5757 5755 5750 5748 5746 5745 5744 5743 5743 5742 5741 5741 5742 5743 5745 5747 5749 5750 5751 5754 5757 5759 5761 5763 5765 5768 5769 5773 5779 5783 5786 5789 5790 5794 5797 5801 5804 5807 5810 5813 5815
5750 5751 5752 5752 5756 5753 5751 5750 5746 5743 5742 5742 5740 5739 5737 5736 5737 5737 5739 5740 5741 5743 5746 5748 5750 5752 5755 5758 5760 5762 5765 5768 5773 5778 5781 5785 5788 5791 5794 5797 5800 5803 5806 5808 5807 5811 5813
5740 5743 5744 5746 5750 5748 5745 5745 5742 5740 5738 5738 5736 5735 5730 5730 5731 5733 5736 5736 5738 5741 5744 5746 5748 5751 5754 5757 5760 5763 5765 5769 5774 5777 5781 5785 5788 5791 5794 5798 5800 5804 5807 5807 5808 5809 5811
5730 5735 5736 5739 5744 5742 5740 5739 5737 5736 5734 5734 5733 5731 5729 5727 5728 5730 5732 5735 5738 5740 5743 5746 5749 5751 5754 5756 5760 5764 5766 5769 5774 5778 5781 5785 5788 5792 5795 5799 5802 5804 5807 5808 5808 5809 5811
5720 5725 5729 5733 5737 5736 5734 5732 5731 5732 5730 5730 5731 5730 5728 5728 5728 5730 5731 5734 5737 5740 5743 5745 5748 5751 5753 5756 5760 5764 5766 5771 5775 5780 5783 5785 5789 5793 5796 5799 5801 5802 5806 5808 5808 5809 5809
5708 5715 5721 5726 5730 5729 5728 5727 5727 5727 5727 5727 5729 5728 5728 5728 5729 5729 5732 5735 5739 5741 5743 5746 5748 5750 5753 5755 5758 5763 5767 5772 5777 5782 5785 5788 5791 5792 5794 5797 5800 5803 5805 5806 5806 5806 5806
5698 5705 5711 5718 5723 5722 5722 5722 5722 5723 5723 5724 5726 5726 5726 5727 5728 5729 5732 5734 5737 5740 5742 5746 5749 5752 5754 5758 5760 5764 5768 5774 5778 5782 5784 5788 5789 5791 5795 5798 5799 5802 5803 5806 5807 5804 5804
5685 5695 5702 5709 5715 5715 5716 5717 5718 5719 5719 5721 5723 5723 5724 5726 5728 5730 5732 5735 5739 5742 5745 5748 5751 5754 5757 5760 5762 5765 5769 5773 5777 5780 5783 5785 5789 5792 5794 5796 5798 5800 5802 5803 5804 5802 5802
5673 5684 5693 5701 5705 5707 5709 5712 5714 5715 5715 5718 5719 5719 5722 5725 5730 5731 5734 5738 5741 5744 5748 5752 5753 5757 5759 5761 5764 5767 5770 5774 5776 5780 5783 5786 5789 5792 5795 5796 5797 5798 5799 5801 5802 5801 5801
5662 5672 5682 5692 5696 5699 5702 5707 5709 5711 5712 5715 5716 5717 5721 5726 5730 5733 5737 5740 5744 5747 5751 5755 5756 5759 5761 5765 5767 5769 5772 5775 5779 5782 5786 5789 5790 5792 5793 5794 5795 5797 5797 5798 5799 5800 5798
5651 5660 5671 5682 5687 5691 5695 5701 5705 5707 5710 5712 5714 5717 5722 5727 5731 5735 5739 5743 5747 5752 5753 5756 5758 5760 5763 5765 5768 5769 5772 5776 5779 5782 5784 5787 5789 5791 5792 5794 5795 5795 5796 5796 5796 5796 5796
5637 5647 5660 5671 5678 5682 5688 5695 5701 5704 5707 5710 5714 5718 5723 5728 5733 5737 5741 5746 5750 5752 5755 5758 5760 5761 5763 5766 5768 5771 5773 5776 5779 5781 5784 5786 5788 5789 5790 5792 5792 5792 5793 5793 5793 5793 5792
5624 5635 5648 5658 5668 5675 5681 5690 5696 5700 5704 5708 5714 5718 5724 5730 5734 5739 5743 5747 5750 5752 5755 5757 5760 5763 5764 5767 5768 5770 5772 5775 5778 5780 5782 5785 5787 5787 5788 5789 5790 5790 5790 5790 5789 5789 5788
5614 5626 5636 5648 5658 5666 5673 5684 5690 5696 5701 5707 5713 5719 5725 5731 5735 5740 5745 5748 5751 5753 5756 5759 5761 5763 5764 5766 5768 5769 5772 5774 5776 5778 5781 5782 5784 5785 5786 5787 5788 5788 5788 5788 5787 5786 5786
5607 5619 5628 5639 5649 5657 5668 5677 5685 5692 5697 5705 5711 5719 5725 5730 5735 5740 5745 5748 5751 5754 5757 5759 5761 5762 5763 5765 5767 5768 5770 5772 5774 5777 5778 5780 5782 5784 5785 5786 5787 5787 5787 5787 5785 5785 5783
5601 5611 5622 5632 5642 5651 5662 5671 5681 5687 5694 5702 5709 5717 5724 5729 5734 5739 5744 5748 5751 5754 5756 5758 5759 5760 5761 5762 5764 5766 5769 5771 5773 5775 5777 5779 5781 5783 5784 5784 5785 5786 5786 5785 5784 5783 5782
5595 5606 5617 5627 5635 5646 5656 5667 5676 5683 5690 5700 5706 5714 5722 5728 5734 5739 5743 5747 5750 5753 5755 5757 5758 5758 5759 5760 5763 5765 5767 5769 5771 5773 5775 5777 5779 5779 5782 5783 5783 5784 5785 5784 5783 5781 5778
5590 5602 5612 5621 5630 5641 5651 5662 5670 5678 5687 5697 5704 5713 5720 5726 5733 5738 5742 5746 5749 5752 5754 5755 5756 5757 5758 5759 5761 5762 5765 5767 5769 5771 5773 5775 5777 5779 5780 5783 5783 5783 5782 5781 5780 5779 5777
5586 5599 5607 5617 5627 5637 5647 5658 5666 5674 5684 5694 5702 5709 5717 5724 5731 5736 5740 5745 5748 5750 5752 5753 5755 5755 5757 5758 5759 5760 5763 5765 5768 5770 5772 5774 5776 5778 5779 5780 5780 5780 5779 5777 5776 5775 5773
5584 5595 5604 5614 5624 5634 5644 5654 5661 5671 5681 5691 5698 5707 5717 5723 5730 5734 5739 5744 5747 5749 5751 5752 5753 5754 5755 5757 5758 5760 5762 5764 5767 5769 5771 5773 5774 5774 5775 5775 5775 5774 5774 5773 5772 5770 5767
5580 5591 5601 5612 5621 5631 5641 5649 5658 5668 5678 5688 5697 5705 5714 5721 5726 5731 5737 5742 5745 5747 5750 5751 5751 5752 5754 5756 5757 5758 5760 5762 5764 5767 5768 5770 5771 5771 5771 5771 5770 5770 5768 5766 5765 5763 5760
5580 5588 5598 5609 5619 5629 5638 5646 5655 5664 5675 5684 5694 5704 5711 5718 5724 5729 5735 5739 5743 5745 5748 5749 5750 5751 5752 5754 5755 5756 5758 5759 5761 5763 5764 5765 5766 5766 5766 5765 5764 5766 5763 5760 5759 5757 5753
5577 5587 5597 5608 5618 5627 5635 5643 5652 5663 5673 5682 5692 5700 5708 5715 5721 5727 5731 5735 5739 5742 5744 5746 5748 5749 5749 5750 5752 5753 5755 5757 5758 5760 5761 5762 5761 5761 5761 5759 5757 5759 5757 5753 5751 5750 5746
5577 5588 5597 5607 5617 5624 5632 5640 5649 5660 5670 5680 5689 5697 5705 5712 5718 5720 5727 5732 5735 5738 5741 5743 5744 5745 5746 5747 5749 5750 5751 5753 5754 5755 5755 5756 5755 5755 5753 5752 5749 5751 5750 5746 5742 5742 5737
5577 5587 5597 5607 5615 5623 5630 5638 5648 5658 5668 5677 5686 5694 5702 5707 5711 5717 5723 5726 5730 5735 5737 5739 5740 5741 5742 5743 5744 5745 5747 5748 5749 5750 5750 5749 5748 5747 5746 5742 5740 5743 5742 5737 5733 5733 5727
5577 5587 5598 5606 5614 5621 5628 5637 5646 5657 5666 5674 5682 5690 5697 5702 5707 5713 5719 5722 5726 5729 5733 5734 5735 5736 5737 5738 5739 5740 5740 5741 5741 5742 5743 5741 5739 5737 5736 5734 5732 5735 5730 5727 5725 5723 5717
5577 5588 5599 5606 5614 5621 5628 5636 5645 5654 5663 5670 5677 5685 5692 5698 5703 5709 5713 5717 5721 5723 5725 5728 5730 5731 5731 5732 5733 5733 5732 5733 5734 5734 5733 5733 5730 5730 5727 5725 5724 5725 5721 5717 5714 5710 5705
5579 5590 5598 5606 5614 5621 5628 5635 5643 5651 5659 5666 5673 5680 5687 5693 5699 5703 5707 5712 5715 5717 5719 5721 5724 5724 5724 5725 5725 5725 5724 5724 5725 5724 5724 5723 5721 5719 5719 5717 5716 5711 5708 5706 5703 5698 5693
Wind_Speed
44 44 54 44 43 42 45 42 38 33 26 22 24 24 25 24 23 17 18 19 18 17 14 12 14 11 13 17 17 18 18 18 19 21 25 34 36 34 30 29 20 15 8 7 9 7 10
48 47 53 46 43 44 43 42 35 30 23 23 24 26 27 23 20 20 18 17 18 19 16 14 14 14 14 16 16 18 19 23 28 28 33 39 37 27 24 18 18 15 10 9 12 13 13
52 52 52 47 43 44 42 41 33 23 21 22 25 27 26 26 25 20 17 14 18 20 17 15 15 15 17 15 17 19 23 27 20 30 37 33 31 32 26 16 15 15 13 7 13 17 15
52 53 51 47 47 44 40 38 29 23 20 21 22 25 20 18 15 16 16 16 16 18 16 16 18 13 10 14 17 22 28 22 31 36 36 32 30 24 23 14 17 15 17 10 9 11 12
51 52 49 44 46 44 38 36 28 24 20 18 16 13 9 7 12 14 16 15 15 15 17 14 11 11 12 16 18 25 25 26 37 38 34 30 27 18 18 17 12 13 13 14 13 8 12
52 51 47 39 45 44 38 32 25 23 18 14 9 8 3 5 11 16 17 17 14 14 13 11 11 13 15 16 22 24 23 35 38 37 35 35 32 25 19 14 16 19 21 18 15 12 11
54 52 44 32 42 41 37 29 24 22 17 14 12 11 7 6 8 16 17 14 14 12 13 14 18 16 19 18 21 25 21 32 37 34 28 31 30 25 25 27 21 20 24 19 17 13 9
57 50 38 34 42 36 33 26 24 21 17 15 12 11 12 11 11 20 16 17 14 17 20 19 19 17 14 16 20 20 24 30 30 30 18 22 24 28 28 22 20 18 24 15 11 6 8
55 47 35 39 39 34 27 24 23 20 17 16 15 12 13 13 13 14 16 15 18 20 21 21 20 18 18 17 18 22 23 26 28 30 26 29 29 28 27 23 19 16 16 12 10 10 10
50 43 38 39 37 32 23 24 22 21 17 16 15 13 13 13 15 18 21 23 22 22 22 22 23 21 21 21 20 20 23 27 27 25 25 22 24 23 19 17 14 13 12 14 15 17 21
50 43 37 37 36 29 23 25 23 22 16 17 16 13 16 21 25 24 25 26 25 26 25 23 21 22 21 20 21 20 19 17 17 15 17 14 13 20 19 16 13 11 11 12 13 17 22
51 42 40 38 37 27 26 27 25 22 18 18 15 21 27 29 30 30 28 27 25 26 23 22 21 20 18 18 18 18 19 17 15 14 15 17 15 15 15 13 11 10 11 15 16 19 23
55 50 44 41 36 29 31 29 28 22 21 18 25 30 34 33 33 30 27 26 24 24 23 21 20 19 17 17 17 15 14 15 15 15 17 18 17 15 14 12 12 14 16 18 20 21 25
60 54 49 42 37 34 34 32 30 24 24 27 33 36 35 34 33 30 29 27 26 24 21 20 18 16 14 13 13 14 15 16 16 17 18 16 15 13 11 9 9 8 9 9 10 11 12
59 55 50 45 39 40 35 35 32 27 29 36 39 38 36 35 34 31 29 27 24 21 19 16 13 13 12 12 12 13 14 16 16 16 15 14 12 10 9 8 8 7 6 5 6 7 9
60 54 48 45 43 43 38 37 34 30 36 44 43 39 38 38 35 33 31 24 19 18 16 14 12 13 14 15 15 16 16 15 14 14 14 13 12 11 11 10 8 6 5 2 1 3 6
58 51 47 46 47 42 41 38 36 35 42 48 47 42 41 39 36 35 30 24 21 17 13 9 8 10 13 14 16 17 16 14 15 15 16 14 14 13 12 10 8 7 4 2 3 6 8
57 51 47 47 45 41 41 40 39 40 47 52 48 44 42 40 39 36 30 25 21 15 10 6 5 5 10 11 13 16 17 17 17 18 17 15 15 15 11 9 6 5 5 4 7 10 14
55 51 47 47 44 41 41 42 41 45 49 52 49 46 44 41 39 35 30 24 19 14 9 4 3 7 11 11 14 18 18 19 20 18 16 16 15 14 12 10 9 9 10 10 11 11 12
53 50 46 49 43 41 41 42 42 47 52 54 51 48 45 42 39 34 31 25 17 13 8 6 4 7 9 12 15 17 18 19 19 18 17 17 16 13 12 11 12 13 14 14 15 15 15
53 48 44 47 43 41 41 42 42 50 54 54 52 49 44 43 40 36 31 26 19 15 9 7 4 8 9 10 12 15 17 18 18 18 19 18 16 14 13 14 15 16 17 18 18 19 21
49 48 43 46 42 41 42 41 42 52 56 54 52 49 45 43 41 38 32 25 20 15 9 8 6 6 10 10 12 15 17 18 19 20 21 19 18 17 17 17 19 19 21 24 23 24 25
47 42 43 46 40 41 41 39 44 54 57 54 52 48 46 44 42 39 32 26 22 17 12 11 9 6 11 13 13 17 18 21 21 23 24 23 22 22 22 23 24 22 24 28 28 27 30
44 41 44 43 38 41 38 39 45 54 57 54 50 49 46 44 41 38 33 29 25 20 17 14 11 9 11 15 17 17 19 20 23 23 26 26 27 28 28 29 31 26 28 31 33 30 33
41 41 44 42 38 39 35 39 44 54 57 54 52 49 46 43 41 41 36 32 28 24 19 17 16 13 12 17 20 21 21 21 23 25 27 29 31 33 34 34 36 32 30 34 37 34 36
41 40 43 39 39 36 34 39 44 53 56 55 52 48 46 44 43 41 37 36 33 27 24 22 21 19 17 17 20 22 24 25 25 26 28 32 35 37 38 41 41 36 35 39 41 38 39
43 45 42 39 37 34 32 37 43 49 53 53 54 51 48 45 44 42 39 38 34 30 27 26 25 23 23 22 21 22 25 28 29 29 28 33 37 39 41 43 44 39 40 42 42 42 41
46 45 42 38 33 31 32 37 42 47 50 53 53 51 49 47 44 42 41 39 37 35 33 31 30 29 29 29 28 28 31 31 31 32 33 35 38 38 40 42 44 40 43 44 43 43 45
47 45 42 37 34 28 31 35 40 43 47 49 48 48 48 46 44 42 41 40 39 38 36 36 34 33 34 34 34 35 37 37 36 37 36 38 39 40 40 40 40 43 45 44 45 46 48
Wind_Direction
267 272 280 286 296 303 308 308 308 302 286 274 278 281 278 280 273 271 245 239 239 240 241 241 236 220 208 195 199 201 202 195 175 176 178 161 167 175 190 194 157 153 149 162 171 198 225
264 269 276 283 291 299 306 305 307 300 277 279 277 284 281 277 272 272 242 236 233 238 230 237 228 210 194 195 203 202 197 177 167 178 168 162 177 169 172 166 163 155 185 211 225 214 224
262 266 273 280 288 297 304 304 301 280 277 278 285 289 281 270 274 249 237 242 234 232 220 235 208 192 197 209 206 197 181 169 178 171 162 176 175 179 175 195 190 179 183 241 256 243 248
260 264 270 277 282 292 299 302 294 268 276 275 290 290 282 264 249 229 233 233 224 202 213 204 195 207 207 202 205 199 179 183 169 167 171 178 178 182 180 188 199 196 198 222 178 182 182
259 262 268 274 279 287 294 300 282 266 269 278 285 287 303 231 211 205 202 198 195 200 203 213 215 214 194 185 188 189 196 187 174 174 168 177 175 177 190 195 223 226 185 190 164 158 192
256 259 264 272 274 282 290 297 268 261 264 272 289 259 299 242 219 213 187 187 191 199 203 210 207 178 170 179 174 198 200 178 177 176 180 186 190 195 191 182 164 175 168 192 183 188 193
252 254 260 262 272 279 286 290 254 254 256 248 272 233 256 243 206 175 182 181 189 191 193 176 160 157 163 166 167 181 182 186 181 176 182 199 201 204 189 181 177 181 185 186 187 193 202
248 250 249 254 268 274 282 276 246 247 250 238 250 249 229 243 235 204 203 182 188 174 157 148 144 148 153 153 155 169 182 183 178 184 197 197 174 173 176 171 177 179 191 186 166 216 244
240 242 234 253 262 267 273 255 240 240 241 239 244 243 221 230 208 184 179 172 154 147 143 143 145 146 148 149 152 160 163 170 184 189 188 176 169 173 174 184 198 200 180 185 225 246 270
225 225 230 248 254 255 257 240 237 236 229 245 241 230 213 193 185 168 154 151 148 146 146 147 142 140 141 140 141 149 161 171 181 184 183 182 185 186 192 207 211 210 218 219 224 252 264
209 211 224 238 243 247 240 229 228 226 225 226 229 193 172 162 155 152 151 148 147 148 151 148 148 151 151 151 150 156 163 166 173 179 182 187 203 194 200 201 205 209 225 233 234 245 264
200 208 215 222 233 233 222 223 223 216 221 222 186 165 157 154 153 150 149 152 155 158 156 156 157 157 157 157 166 173 173 174 181 194 199 207 204 202 208 212 215 225 238 247 250 250 252
200 201 205 215 227 215 211 215 216 208 214 185 168 157 156 155 152 152 157 161 165 166 160 159 158 158 163 165 179 189 193 188 185 196 209 212 206 210 214 222 233 241 245 250 253 253 256
196 197 201 208 215 209 203 207 208 204 195 173 163 159 157 158 159 163 167 168 168 163 163 160 164 167 170 174 184 193 195 195 195 197 206 210 214 222 232 230 220 220 233 242 252 250 257
194 194 196 200 205 202 198 203 201 202 182 170 166 164 165 166 167 170 173 170 168 165 164 165 170 180 196 203 205 211 210 205 204 203 207 215 221 222 211 199 199 202 216 239 266 279 288
193 193 193 197 200 193 196 200 197 198 179 171 169 171 173 173 173 175 175 169 165 168 173 180 196 216 222 222 219 217 214 215 214 205 208 209 193 191 196 189 174 165 164 143 311 333 357
189 191 194 198 194 193 195 197 196 193 178 174 171 176 180 178 179 179 176 167 159 170 186 194 212 223 226 217 214 210 214 209 203 195 197 194 183 185 186 175 164 165 173 112 2 355 353
189 190 194 195 190 193 194 195 197 188 180 177 175 181 185 184 184 182 182 178 174 189 202 209 230 209 211 215 209 209 208 201 200 192 184 184 184 177 186 186 190 222 243 264 307 323 327
188 190 194 191 190 194 193 194 195 184 181 179 180 185 189 189 188 188 188 186 190 197 220 238 238 186 196 187 191 202 202 199 192 192 190 185 182 189 202 217 228 245 260 290 302 307 311
186 192 195 190 190 193 194 195 192 182 181 182 183 190 191 192 191 194 192 192 202 215 221 242 226 206 194 187 192 191 190 193 194 195 193 190 192 204 215 234 242 254 268 282 287 293 308
189 191 192 189 192 192 194 195 190 182 183 186 188 193 195 194 194 197 193 193 197 222 230 244 243 211 204 195 205 200 197 198 204 201 198 204 208 220 230 243 256 269 278 282 290 298 307
189 191 196 190 191 192 191 194 189 183 185 188 191 194 196 197 199 205 202 203 208 221 229 240 246 209 211 200 207 210 207 210 210 210 211 214 222 234 243 253 264 273 284 288 292 300 303
189 191 195 187 191 193 194 194 190 184 187 190 194 197 199 201 204 205 206 212 217 221 227 239 252 262 219 212 215 222 218 218 218 220 220 226 234 244 250 259 265 270 280 284 289 296 301
190 193 189 188 192 193 194 193 191 186 189 193 195 199 203 204 208 213 215 217 222 224 233 240 250 255 240 224 227 232 234 232 231 232 235 240 246 254 258 264 267 275 280 287 289 294 298
192 196 206 192 193 194 195 192 191 188 190 194 197 201 205 209 211 218 219 222 227 233 241 251 257 256 250 234 235 239 242 246 246 244 244 248 253 259 264 268 273 278 282 283 289 292 296
192 199 184 188 194 191 194 191 191 190 192 199 199 202 206 210 215 219 222 226 231 235 243 250 257 261 263 262 253 246 247 248 250 254 256 257 258 260 265 269 272 277 280 283 286 292 293
193 194 184 188 194 194 195 192 192 192 195 202 202 206 210 214 219 223 225 230 236 243 248 253 257 262 267 269 271 269 263 258 257 257 254 256 259 261 264 269 273 278 281 284 287 289 295
196 181 186 185 189 194 195 193 193 193 195 202 208 209 214 217 222 227 229 231 237 242 248 252 256 260 263 267 270 272 273 270 269 267 263 263 265 268 269 272 277 280 281 282 286 290 293
177 184 185 184 183 192 195 194 196 196 198 204 210 213 217 221 224 228 232 234 238 244 250 256 259 263 267 270 272 273 274 276 276 273 272 273 271 273 273 277 281 282 281 285 287 290 293